Location: Moydans
(44.3997°N, 5.5038°E)
Time: 13:44:34
(UTC+02:00)

Envisat - Pass Details

Date: 04 October 2021
Orbit: 764 x 766 km, 98.2° (Epoch: 20 October)

Event Time Altitude Azimuth Distance (km) Brightness Sun altitude
Rises 07:01:41 0° 11° (NNE) 3,240 6.4 -7.6°
Reaches altitude 10° 07:04:00 10° 10° (N) 2,309 5.6 -7.2°
Maximum altitude 07:09:05 77° 286° (WNW) 789 3.0 -6.3°
Drops below altitude 10° 07:14:07 10° 201° (SSW) 2,292 5.3 -5.4°
Sets 07:16:25 0° 200° (SSW) 3,214 6.0 -4.9°
